Location: San Martino di Castrozza
(46.2667°N, 11.8000°E)
Time: 02:39:04
(UTC+00:00)

CZ-4B R/B - Pass Details

Date: 23 April 2021
Orbit: 702 x 803 km, 98.9° (Epoch: 15 May)

Event Time Altitude Azimuth Distance (km) Brightness Sun altitude
Rises 02:28:12 0° 13° (NNE) 3,104 7.5 -16.4°
Reaches altitude 10° 02:30:27 10° 13° (NNE) 2,186 6.6 -16.1°
Maximum altitude 02:35:13 82° 287° (WNW) 726 3.3 -15.5°
Enters shadow 02:38:45 19° 200° (SSW) 1,690 4.8 -15.0°
